Torna al catalogo

STARLINK-32099

AttivoComunicazioniVLEO
NORAD 59697·PAYLOAD·🇺🇸 United States

Lanciato May 8, 2024 da Cape Canaveral Space Force Station

Loading…

Prossimi Passaggi (prossime 24 ore)

TLE

AggiornatoSource: CelesTrak SupGP

Epoca: Sep 14, 2026, 22:11 UTC

1 59697C 24086R   26257.92479167  .00054158  00000+0  19618-2 0  2579
2 59697  43.0001  70.9847 0001461 271.3058 163.3470 15.27547665    12

Traccia STARLINK-32099 in tempo reale con AllMySat

Download on the App Store